Dewpoint
46 46 46 46 47 47 48 49 49 49 50 50 50 51 53 55 52 32 22 42 49 60 57 35 27 23 18 19 19 16 12 8 3 5 8 17 16 21 26 31 35 37 45 44 54
46 46 46 46 46 47 47 48 48 49 49 50 50 51 53 54 43 31 52 59 59 59 41 29 23 16 14 15 16 15 9 5 1 1 4 12 14 20 23 30 35 41 50 53 53
46 46 46 46 46 46 46 47 48 48 49 49 49 51 52 51 30 33 55 55 57 55 40 38 29 19 12 13 14 14 12 7 4 9 10 10 14 17 21 28 34 40 49 54 52
46 46 46 46 46 46 45 46 46 46 47 48 48 50 52 45 11 43 53 54 54 47 36 33 27 17 13 10 11 12 12 9 8 10 10 12 12 15 18 26 30 35 48 53 51
46 46 46 46 46 45 45 45 46 46 47 47 48 49 46 27 21 45 53 49 34 38 36 32 26 16 12 8 9 11 10 11 10 11 11 13 14 15 17 20 32 32 45 51 50
45 45 45 44 45 46 46 45 46 46 46 47 47 48 39 28 21 23 26 25 26 30 36 34 29 24 15 10 9 10 10 14 8 11 11 11 11 16 17 19 23 26 38 51 50
44 44 44 45 46 45 45 45 46 47 48 48 47 41 37 31 29 29 28 25 23 26 33 36 34 32 25 23 16 11 12 14 12 10 11 12 10 11 13 16 19 22 36 48 50
44 44 44 45 45 45 45 47 48 48 48 48 47 39 33 30 28 25 24 21 18 19 22 31 37 35 31 28 21 17 16 12 11 9 10 12 9 5 9 14 17 23 31 43 48
43 44 44 44 45 46 47 47 48 47 49 47 44 38 28 32 24 26 28 32 29 18 18 25 37 36 29 27 20 22 13 13 7 4 4 11 11 8 4 9 16 18 23 37 46
43 43 43 43 45 46 46 47 47 46 39 41 37 32 33 19 20 24 24 25 29 37 23 23 34 31 28 22 14 14 13 13 7 5 3 5 10 10 4 2 10 14 19 25 40
44 42 42 43 44 46 44 35 32 35 31 26 26 25 23 23 24 20 22 25 31 36 26 22 26 25 23 22 19 14 10 8 12 8 6 10 9 5 7 4 8 13 16 18 26
41 42 43 44 44 46 41 33 34 38 35 30 27 26 25 28 25 21 19 24 23 27 29 21 21 22 23 20 18 17 15 13 10 9 11 10 11 9 5 5 5 8 14 16 19
43 44 44 45 46 41 35 34 35 38 32 25 23 25 28 31 28 24 21 21 23 21 26 22 14 18 19 18 19 17 18 17 13 10 12 13 13 13 8 6 7 8 11 14 18
43 44 45 46 42 35 32 31 37 41 31 12 18 27 28 31 26 25 22 19 23 21 23 25 19 10 16 17 18 18 18 19 18 15 10 14 10 12 9 8 9 12 15 16 17
43 44 44 44 40 33 32 35 39 43 25 11 17 28 24 21 23 23 25 21 19 21 30 23 21 14 10 16 19 18 21 20 21 21 21 17 14 14 14 7 8 12 14 17 18
43 44 45 41 40 39 40 41 42 37 20 8 15 17 16 14 25 29 29 24 22 18 22 21 25 19 15 12 14 20 21 21 22 22 19 20 17 16 13 13 12 8 11 16 15
43 44 42 38 39 43 43 39 35 28 8 9 14 18 14 16 22 30 29 27 16 12 13 14 16 25 24 23 17 16 21 18 17 19 19 18 17 19 16 15 15 14 11 15 18
44 45 42 43 44 46 41 35 27 11 10 12 15 12 11 16 16 14 24 27 25 10 7 -1 1 7 19 23 20 18 19 18 15 15 14 16 14 13 17 17 18 17 18 20 22
45 41 43 45 46 44 36 32 30 18 15 17 14 9 13 14 15 13 16 23 22 28 20 11 5 -1 -5 1 21 21 17 17 18 17 14 10 12 16 16 15 17 19 21 21 23
36 37 38 48 46 41 36 29 26 21 21 21 17 15 15 14 14 14 15 29 23 29 31 28 20 14 13 11 12 13 17 19 20 16 14 12 12 10 15 15 16 19 21 22 23
37 34 40 46 44 34 34 32 24 23 24 24 22 22 20 19 17 17 16 22 31 30 28 28 29 20 16 15 19 17 17 19 18 19 15 12 10 17 16 18 20 20 23 26 28
36 36 41 44 36 39 34 27 29 22 21 23 24 24 24 25 25 22 19 18 26 27 29 36 32 28 19 16 12 15 19 27 22 16 18 20 15 16 19 17 21 19 21 23 25
40 40 40 42 33 33 31 25 22 19 21 22 24 23 28 26 25 23 23 25 28 29 30 32 29 22 17 18 16 16 17 25 31 31 24 20 18 20 20 21 23 24 24 25 26
37 33 36 35 38 32 28 25 18 19 19 18 21 23 23 22 21 25 25 27 31 27 36 33 28 25 21 20 24 24 24 20 20 33 30 25 23 21 26 27 26 27 29 28 29
40 33 31 32 34 34 27 24 20 19 18 19 21 20 21 19 19 17 20 22 23 28 30 32 31 27 25 23 21 24 19 19 20 22 31 30 25 31 30 28 30 29 30 31 32
35 37 31 32 27 26 27 30 21 17 19 21 20 19 18 20 19 18 17 17 20 24 26 31 29 30 31 26 23 20 19 21 21 21 21 21 22 24 26 28 27 27 26 28 29
35 31 32 31 27 29 30 25 17 19 22 19 19 21 20 20 21 22 22 22 23 23 25 26 26 26 26 22 21 25 27 23 19 19 19 21 23 23 21 20 23 23 23 25 26
Lifted_Index
16 16 16 16 16 16 16 16 16 16 16 16 15 14 13 13 12 11 10 9 9 9 10 10 11 11 11 10 9 8 5 3 2 1 1 2 3 3 2 1 1 -0 -1 -1 -1
15 15 15 16 16 16 16 16 16 16 16 16 15 15 14 13 12 10 9 9 9 9 9 9 10 10 10 9 9 8 6 4 2 1 2 3 3 3 2 1 1 -0 -2 -2 -1
15 15 15 15 16 16 16 16 16 16 16 16 15 15 14 13 11 9 9 9 9 8 8 9 9 10 9 9 8 8 6 5 4 3 3 4 4 4 3 2 1 -0 -1 -2 -2
14 15 15 15 15 16 16 16 16 16 16 15 15 14 13 12 9 9 9 10 9 9 8 8 9 9 8 8 8 7 7 6 5 5 5 5 5 4 4 3 2 1 -1 -2 -2
15 15 15 15 16 16 16 16 16 16 16 16 15 14 12 11 10 11 11 11 10 9 8 8 8 8 8 7 7 7 7 7 7 7 7 6 6 5 5 4 3 2 0 -1 -2
15 15 16 16 16 16 16 16 16 16 16 15 15 14 12 11 11 12 13 13 12 11 9 8 8 8 8 8 7 7 7 7 7 7 7 7 6 6 6 5 4 3 1 -1 -1
16 16 16 16 16 16 16 16 16 15 15 15 14 13 12 11 12 13 13 13 13 12 10 9 8 8 8 7 7 7 7 7 7 7 7 7 6 6 6 5 5 4 2 -0 -1
16 16 16 16 16 16 16 16 15 14 14 14 13 12 11 11 12 12 12 12 13 13 11 10 8 8 8 7 7 7 6 6 6 7 7 6 6 5 5 5 5 5 3 1 -1
16 16 16 16 16 16 16 15 14 14 13 12 12 11 11 12 12 12 12 11 11 11 11 10 8 7 7 7 6 5 4 4 5 5 6 6 6 5 5 5 5 5 4 2 0
16 16 17 17 16 16 15 14 13 13 12 12 12 11 11 11 12 11 11 10 9 9 9 9 8 7 7 6 5 4 3 4 4 4 5 5 6 5 5 4 4 5 4 3 2
16 17 17 17 16 15 14 13 13 12 12 12 12 11 10 10 10 10 10 9 8 7 7 8 7 7 7 7 6 5 5 4 4 4 4 5 6 5 4 4 4 4 5 4 4
17 17 16 16 16 15 14 13 13 12 12 12 11 10 9 8 8 8 8 8 7 6 5 6 6 7 6 7 7 6 6 5 4 3 3 5 6 5 5 4 4 4 5 4 4
16 16 16 16 16 15 14 14 14 12 11 11 10 9 7 6 6 6 7 6 6 5 4 4 6 6 6 6 6 6 6 6 5 4 3 4 5 5 5 4 4 4 5 5 4
16 16 16 15 15 14 14 14 13 11 9 9 9 7 6 5 4 4 5 5 5 4 3 3 4 5 5 5 5 5 5 5 5 4 3 4 4 5 5 5 5 5 5 5 5
15 15 15 15 14 13 14 14 12 9 7 8 8 6 5 4 2 2 3 4 4 3 2 2 2 3 4 5 4 4 4 4 4 3 3 3 4 4 5 4 4 5 5 5 5
15 15 15 14 13 13 13 12 10 7 6 8 8 6 4 3 1 0 1 2 3 3 2 2 1 2 3 4 4 3 3 3 3 3 3 3 4 5 5 4 4 4 4 5 5
14 14 14 13 12 12 11 10 7 6 8 8 7 6 4 2 1 0 0 1 1 1 2 1 1 1 2 3 3 2 1 1 1 2 3 4 5 5 5 5 5 4 5 5 6
14 14 13 12 11 11 10 8 6 7 8 8 7 5 4 2 1 1 1 0 0 0 0 1 1 1 1 2 2 2 1 1 1 1 2 3 4 5 6 5 5 5 6 6 7
13 12 12 11 11 10 8 7 6 7 8 8 7 5 3 2 1 1 1 0 0 -0 -0 -0 0 1 1 1 2 1 1 1 0 0 1 1 2 3 5 6 6 6 6 6 6
12 11 11 11 11 9 8 7 7 8 8 7 6 5 3 2 2 1 1 0 0 0 -0 -0 -0 -0 0 0 1 1 0 0 -0 -0 -0 -0 0 2 3 4 5 6 6 6 6
11 11 11 11 10 9 7 7 8 8 8 7 6 5 4 3 2 1 0 0 0 1 1 0 -0 -0 -0 -0 -0 0 0 -0 -1 -1 -0 -0 0 1 1 2 3 4 4 5 5
11 10 11 11 10 8 8 8 9 9 8 7 6 5 4 3 2 1 1 0 1 1 1 1 0 0 -0 -1 -1 -0 -0 -0 -1 -1 -1 -1 -0 0 1 1 1 2 3 4 5
10 10 11 11 9 9 9 9 9 9 9 8 7 6 5 4 3 2 1 1 1 1 1 1 1 1 0 0 -0 -0 -0 -0 -1 -1 -1 -1 -1 -0 0 0 0 0 1 3 4
10 10 10 11 10 9 9 9 9 9 9 9 8 7 6 5 5 4 3 2 2 2 1 1 1 1 1 1 1 0 -0 -0 -0 -0 -1 -1 -1 -0 0 0 0 1 1 2 3
10 10 10 10 10 10 10 9 9 9 10 9 9 8 7 7 6 5 4 4 3 2 2 1 1 1 1 1 1 1 0 0 0 0 0 -0 -0 0 1 1 1 2 3 3 3
10 10 10 10 10 10 10 10 9 10 10 10 9 9 8 8 8 7 6 6 5 4 3 2 1 1 1 1 1 1 1 0 0 1 0 0 0 1 1 2 2 3 3 3 3
11 11 11 10 10 10 10 10 10 10 10 10 10 9 9 9 8 8 7 6 6 5 4 3 2 1 1 1 1 1 1 0 0 1 0 0 0 1 2 2 2 2 3 3 3